This is the latest recevied weather packets stored in our database for station/object KY4EF. If no packets are shown the sender has not sent any weather packets the latest 10 day(s).
| Time | Temp. | Humidity | Pressure | Rain* | Wind** | Luminosity | Snow |
|---|---|---|---|---|---|---|---|
| 1777634945 | 6.11° C | 99% | 1012.7 hPa | 0 mm | - | 18 W/m² | - |
| 1777634642 | 6.11° C | 99% | 1012.7 hPa | 0 mm | - | 14 W/m² | - |
| 1777634339 | 6.11° C | 99% | 1012.6 hPa | 0 mm | - | 14 W/m² | - |
| 1777634035 | 6.67° C | 99% | 1012.5 hPa | 0 mm | - | 15 W/m² | - |
| 1777633732 | 6.67° C | 99% | 1012.5 hPa | 0 mm | - | 13 W/m² | - |
| 1777633431 | 6.67° C | 99% | 1012.5 hPa | 0 mm | - | 10 W/m² | - |
| 1777633128 | 6.67° C | 99% | 1012.4 hPa | 0 mm | - | 7 W/m² | - |
| 1777632824 | 6.67° C | 98% | 1012.4 hPa | 0 mm | - | 5 W/m² | - |
| 1777632520 | 6.67° C | 98% | 1012.3 hPa | 0 mm | - | 4 W/m² | - |
| 1777632218 | 6.67° C | 99% | 1012 hPa | 0 mm | - | 2 W/m² | - |
| 1777631915 | 6.67° C | 99% | 1012 hPa | 0 mm | - | 1 W/m² | - |
| 1777631613 | 6.67° C | 98% | 1012.2 hPa | 0 mm | - | 0 W/m² | - |
| 1777631310 | 6.67° C | 98% | 1012.4 hPa | 0 mm | - | 0 W/m² | - |
| 1777631007 | 6.67° C | 98% | 1012.3 hPa | 0 mm | - | 0 W/m² | - |
| 1777630703 | 6.67° C | 98% | 1012 hPa | 0 mm | - | 0 W/m² | - |
| 1777630400 | 6.67° C | 97% | 1012.3 hPa | 0 mm | - | 0 W/m² | - |
| 1777630097 | 6.67° C | 97% | 1012.4 hPa | 0 mm | - | 0 W/m² | - |
| 1777629794 | 6.67° C | 97% | 1012.4 hPa | 0 mm | - | 0 W/m² | - |
| 1777629491 | 6.67° C | 98% | 1012.4 hPa | 0 mm | - | 0 W/m² | - |
| 1777629187 | 6.67° C | 97% | 1012.3 hPa | 0 mm | - | 0 W/m² | - |
| 1777628884 | 6.67° C | 97% | 1012.6 hPa | 0 mm | - | 0 W/m² | - |
| 1777628581 | 6.67° C | 97% | 1012.7 hPa | 0 mm | - | 0 W/m² | - |
| 1777628276 | 6.67° C | 97% | 1012.5 hPa | 0 mm | - | 0 W/m² | - |
| 1777627973 | 7.22° C | 97% | 1012.6 hPa | 0 mm | - | 0 W/m² | - |
| 1777627666 | 7.22° C | 97% | 1012.7 hPa | 0 mm | - | 0 W/m² | - |
* Rain latest hour (hover to see other rain measurements)
** Current wind speed in m/s (hover to see current wind gust speed)